Location: Llanarth
(52.1833°N, 4.3000°W)
Time: 09:10:09
(UTC+00:00)

Daily predictions for brighter satellites

Satellite Brightness Start Highest point End
(mag) Time Altitude Azimuth Time Altitude Azimuth Time Altitude Azimuth
Cosmos 2154 Rocket 4.5 17:14:40 10° SSE 17:20:26 40° E 17:26:10 10° NNE
Cosmos 2058 Rocket 3.5 17:16:17 10° NNW 17:20:39 70° W 17:25:00 10° S
Starlink K 3.6 17:18:01 10° SW 17:20:56 43° SSE 17:23:53 10° E
ATLAS CENTAUR R/B 2.8 17:17:57 10° NNW 17:21:17 21° NNE 17:24:26 10° ENE
Cosmos 1242 Rocket 3.2 17:18:05 10° SSE 17:21:18 35° E 17:24:35 10° NNE
Cosmos 1674 2.7 17:18:28 10° S 17:22:11 87° W 17:25:56 10° N
Okean 1-7 Rocket 3.6 17:17:57 10° S 17:22:21 89° W 17:26:50 10° N
Starlink M 3.5 17:19:39 10° SW 17:22:36 44° SSE 17:25:33 10° E
Cosmos 2082 Rocket 4.2 17:21:42 10° WNW 17:25:29 18° NNW 17:29:15 10° NNE
Cosmos 2150 Rocket 4.0 17:22:21 10° S 17:27:26 65° ESE 17:32:33 10° NNE
Cosmos 1602 Rocket 4.2 17:24:17 10° SSE 17:28:17 36° E 17:32:16 10° NNE
CZ-4B R/B 4.4 17:25:42 10° S 17:31:11 50° W 17:36:43 10° NNW
CZ-4 R/B 2.4 17:29:10 10° ESE 17:32:35 26° ENE 17:36:05 10° N
Cosmos 2237 Rocket 2.2 17:26:59 10° NNW 17:32:36 61° NE 17:38:10 10° SE
Cosmos 1300 2.7 17:28:48 10° N 17:32:37 62° ENE 17:36:24 10° SSE
SMAP 3.1 17:28:19 10° SSE 17:32:59 88° ENE 17:37:40 10° NNW
ATLAS CENTAUR R/B 3.7 17:28:12 10° SW 17:33:22 79° SE 17:48:07 10° ENE
COSMO-SKYMED 1 3.8 17:33:35 10° NE 17:37:04 23° E 17:40:31 10° SE
Cosmos 1689 Rocket 3.0 17:34:18 10° N 17:37:11 49° WNW 17:40:03 10° SSW
Cosmos 1125 Rocket 3.8 17:32:48 10° S 17:37:45 47° ESE 17:42:45 10° NE
Cosmos 2333 Rocket 3.1 17:32:41 10° NW 17:38:16 56° WSW 17:43:48 10° S
YAOGAN 6 3.1 17:34:58 10° SE 17:38:25 38° ENE 17:41:50 10° N
NOSS 2-1 (E) 4.3 17:33:36 10° NW 17:38:28 61° NE 17:45:16 10° ESE
AQUARIUS 4.2 17:34:42 10° SSE 17:39:12 89° WSW 17:43:44 10° NNW
Cosmos 2074 Rocket 4.0 17:33:04 10° S 17:39:21 81° E 17:45:40 10° NNE
TIMED 4.5 17:36:27 10° NNW 17:40:52 82° ENE 17:45:14 10° SSE
Cosmos 1626 2.3 17:37:23 10° S 17:40:58 50° E 17:44:35 10° NNE
NOAA 12 4.0 17:38:31 10° SSE 17:43:44 76° ENE 17:49:00 10° NNW
IRS-1C Rocket 4.3 17:39:27 10° SSE 17:44:43 79° WSW 17:50:01 10° NNW
NOSS 0 Rocket 4.1 17:38:28 10° NW 17:44:45 83° WSW 17:50:57 10° SSE
Cosmos 1455 3.3 17:44:20 10° NNE 17:47:27 23° ENE 17:50:31 10° ESE
CSL-04 Rocket 4.2 17:42:35 10° SE 17:47:35 37° ENE 17:52:39 10° N
Envisat 2.9 17:43:17 10° SSE 17:48:22 76° ENE 17:53:28 10° NNW
ATLAS 5 CENTAUR R/B 2.3 17:44:36 10° WSW 17:48:54 50° NW 17:53:50 10° NE
CZ-4B R/B 3.6 17:47:36 10° NNW 17:50:01 21° WNW 17:52:24 10° WSW
Cosmos 1626 Rocket 3.5 17:45:48 10° S 17:50:05 71° E 17:54:25 10° NNE
Cosmos 372 Rocket 4.1 17:47:57 10° SSW 17:53:05 78° WNW 17:58:19 10° NNE
ERBS 4.0 17:51:33 10° S 17:53:59 19° SE 17:55:37 14° E
SL-16 R/B 2.6 17:49:22 10° NNW 17:54:46 41° NE 18:00:07 10° ESE
Starlink AS 2.8 17:52:58 10° WSW 17:55:52 68° SSE 17:57:52 18° E
Meteor 1-24 Rocket 3.7 17:50:35 10° SSW 17:55:54 83° WNW 18:01:25 10° NNE
Starlink AQ 2.8 17:53:05 10° WSW 17:56:01 68° SSE 17:58:02 18° E
Starlink BA 2.8 17:53:12 10° WSW 17:56:07 68° SSE 17:58:05 18° E
Starlink AU 2.8 17:53:24 10° WSW 17:56:19 69° SSE 17:58:18 19° E
Cosmos 1271 Rocket 2.8 17:52:39 10° SSW 17:56:23 74° WNW 18:00:11 10° N
Starlink AT 2.8 17:53:40 10° WSW 17:56:35 69° SSE 17:58:32 19° E
Starlink BB 2.8 17:53:52 10° WSW 17:56:47 69° SSE 17:58:44 19° E
Cosmos 1269 Rocket 4.0 17:51:33 10° NNW 17:56:52 83° ENE 18:02:10 10° SSE
Starlink BC 2.8 17:54:06 10° WSW 17:57:01 69° SSE 17:58:58 19° E
Starlink BK 2.8 17:54:19 10° WSW 17:57:14 69° SSE 17:59:10 19° E
CZ-4C R/B 3.6 17:50:19 10° NW 17:57:16 60° SW 18:05:14 10° SSE
Nadezhda 3 Rocket 4.0 17:51:05 10° N 17:57:24 89° E 18:03:45 10° S
Starlink AY 2.8 17:54:33 10° WSW 17:57:28 69° SSE 17:59:24 19° E
Starlink AW 2.8 17:54:46 10° WSW 17:57:41 70° SSE 17:59:36 19° E
Starlink BJ 2.8 17:55:00 10° WSW 17:57:54 70° SSE 17:59:49 19° E
Starlink AV 2.8 17:55:12 10° WSW 17:58:07 70° SSE 18:00:01 19° E
Starlink BD 2.8 17:55:26 10° WSW 17:58:22 70° SSE 18:00:15 19° E
Starlink BE 2.8 17:55:40 10° WSW 17:58:36 70° SSE 18:00:31 20° E
Okean O Rocket 4.1 17:55:00 10° SSW 17:58:42 26° W 18:02:27 10° NW
Starlink BM 2.8 17:55:53 10° WSW 17:58:48 70° SSE 18:00:41 20° E
Starlink AX 2.7 17:56:07 10° WSW 17:59:02 71° SSE 18:00:54 20° E
Starlink BH 2.8 17:56:21 10° WSW 17:59:15 71° SSE 18:01:07 20° E
Starlink AZ 2.7 17:56:33 10° WSW 17:59:28 71° SSE 18:01:19 20° E
Okean-O 2.6 17:55:10 10° SSE 17:59:37 82° ENE 18:04:04 10° NNW
Starlink BG 2.7 17:56:48 10° WSW 17:59:43 71° SSE 18:01:34 20° E
Starlink BF 2.7 17:57:01 10° WSW 17:59:55 71° SSE 18:01:46 20° E
Starlink BL 2.8 17:57:12 10° WSW 18:00:09 72° SSE 18:02:00 20° E
Starlink AH 2.7 17:57:28 10° WSW 18:00:23 72° SSE 18:02:12 21° E
Starlink AC 2.7 17:57:41 10° WSW 18:00:36 72° SSE 18:02:24 21° E
Starlink X 2.7 17:57:54 10° WSW 18:00:49 72° SSE 18:02:37 21° E
Starlink AE 2.8 17:58:02 10° WSW 18:00:59 72° SSE 18:02:49 21° E
Starlink Z 2.7 17:58:21 10° WSW 18:01:15 72° SSE 18:03:03 21° E
Starlink AK 2.7 17:58:34 10° WSW 18:01:30 73° SSE 18:03:17 21° E
Cosmos 1340 Rocket 2.9 17:57:32 10° NNW 18:01:31 82° WSW 18:05:29 10° S
Starlink AL 2.7 17:58:48 10° WSW 18:01:43 73° SSE 18:03:30 21° E
Starlink AD 2.7 17:58:58 10° WSW 18:01:53 73° SSE 18:03:39 21° E
Starlink Y 2.7 17:59:27 10° WSW 18:02:22 73° SSE 18:04:07 22° E
Starlink AG 2.7 17:59:40 10° WSW 18:02:36 73° SSE 18:04:20 22° E
Starlink W 2.7 17:59:53 10° WSW 18:02:49 74° SSE 18:04:35 22° E
Starlink AJ 2.7 18:00:07 10° WSW 18:03:02 74° SSE 18:04:46 22° E
Starlink AM 2.7 18:00:37 10° WSW 18:03:33 74° SSE 18:05:15 22° E
Starlink AP 2.7 18:00:47 10° WSW 18:03:43 74° SSE 18:05:25 22° E
Starlink AA 2.7 18:01:00 10° WSW 18:03:55 74° SSE 18:05:37 22° E
Starlink AF 2.7 18:01:17 10° WSW 18:04:12 75° SSE 18:05:53 23° E
Cosmos 2219 3.6 17:58:56 10° S 18:04:13 44° ESE 18:09:12 12° NE
Starlink AB 2.7 18:01:29 10° WSW 18:04:24 75° SSE 18:06:04 23° E
Starlink AN 2.7 18:01:40 10° WSW 18:04:35 75° SSE 18:06:15 23° E
SL-14 R/B 3.4 18:02:32 10° SSW 18:06:32 79° WNW 18:10:31 10° N
SJ 16-02 3.7 18:04:27 10° W 18:07:43 20° NW 18:11:01 10° N
Cosmos 1825 Rocket 4.0 18:06:13 10° SSE 18:10:13 38° E 18:14:14 10° NNE
Cosmos 1607 4.0 18:05:23 10° SW 18:11:32 85° NW 18:17:11 13° NE
Cosmos 1980 4.1 18:09:30 10° NW 18:15:11 70° WSW 18:20:50 10° SSE
Cosmos 2297 Rocket 2.7 18:11:06 10° S 18:16:19 40° ESE 18:20:18 16° NE
USA 267 3.3 18:12:10 16° ENE 18:17:35 84° NNW 18:24:08 10° WSW
FengYun 1-2 T 4.3 18:12:13 10° SSE 18:17:51 90° WSW 18:23:34 10° NNW
Timation 2 Rocket 4.1 18:13:41 10° SW 18:19:51 80° NW 18:26:19 10° NNE
Starlink T 2.7 18:17:13 10° WSW 18:20:13 86° SSE 18:21:23 34° E
Meteor 2-17 Rocket 4.4 18:15:06 10° S 18:21:13 75° E 18:27:22 10° NNE
Starlink N 2.7 18:18:40 10° WSW 18:21:41 87° S 18:22:47 36° E
SL-8 Rocket 4.2 18:15:52 10° SSE 18:21:53 49° E 18:27:53 10° NNE
Iridium 96 4.4 18:22:58 32° SE 18:22:58 32° SE 18:24:35 10° SSE
Cosmos 2219 Rocket 4.4 18:17:44 10° NW 18:22:33 29° WSW 18:27:21 10° SSW
Starlink Q 2.7 18:20:25 10° WSW 18:23:27 88° SSE 18:24:29 37° ENE
Starlink P 2.7 18:21:59 10° WSW 18:25:01 89° SE 18:25:59 39° ENE
SKYMED 2 3.6 18:21:05 10° NNE 18:25:25 61° ESE 18:29:43 10° S
Starlink U 2.7 18:23:32 10° WSW 18:26:33 90° S 18:27:28 41° ENE
Cosmos 2341 Rocket 4.0 18:20:41 10° S 18:27:00 69° E 18:33:18 10° NNE
Starlink AR 2.2 18:24:31 10° W 18:27:05 86° NNW 18:27:30 57° ENE
USA 116 4.3 18:27:57 26° ESE 18:27:57 26° ESE 18:30:02 10° SSE
Starlink B 2.7 18:25:07 10° WSW 18:28:08 89° NNW 18:29:00 43° ENE
Cosmos 2227 Rocket 2.5 18:23:27 10° S 18:28:47 44° ESE 18:32:18 20° NE
NOAA 11 4.1 18:25:33 10° SSE 18:31:01 69° ENE 18:36:29 10° N
Ariane Rocket 3.5 18:27:13 10° SE 18:31:52 37° ENE 18:36:31 10° N
Cosmos 1939 Rocket 2.8 18:31:55 10° SSE 18:35:47 60° ENE 18:39:43 10° N
Cosmos 2221 4.1 18:32:17 10° NNE 18:33:55 18° NNE 18:33:55 18° NNE
Starlink D 2.7 18:33:22 10° W 18:36:25 85° N 18:37:00 55° ENE
Starlink S 2.7 18:35:01 10° W 18:38:04 84° N 18:38:35 58° ENE
Starlink C 2.7 18:36:37 10° W 18:39:40 83° NNW 18:40:08 61° ENE
ARGOS 4.0 18:40:06 27° ENE 18:40:15 27° ENE 18:44:41 10° N
Starlink E 2.7 18:38:18 10° W 18:41:21 83° N 18:41:44 64° ENE
Meteor 2-10 Rocket 3.4 18:36:08 10° NNW 18:41:35 80° ENE 18:46:45 10° SSE
Cosmos 1943 4.1 18:37:01 10° NNW 18:41:52 28° NE 18:42:48 27° ENE
Cosmos-2242 3.1 18:38:32 10° NNW 18:42:54 81° W 18:47:11 10° S
Starlink J 2.6 18:39:58 10° W 18:43:01 82° N 18:43:21 68° ENE
Starlink V 2.6 18:41:36 10° W 18:44:39 81° NNW 18:44:56 71° NE
Cosmos 1703 3.6 18:41:41 10° SSE 18:45:27 43° E 18:45:37 42° E
Starlink H 2.6 18:43:18 10° W 18:46:22 81° N 18:46:33 74° NE
YAOGAN 1 2.6 18:42:47 10° SSE 18:47:07 80° WSW 18:51:29 10° NNW
Starlink F 2.6 18:44:58 10° W 18:48:03 80° N 18:48:10 77° NE
Starlink G 2.7 18:46:39 10° W 18:49:44 79° N 18:49:48 78° NNE
Starlink L 2.7 18:48:19 10° W 18:51:24 79° N 18:51:25 79° N
Cosmos 44 3.7 18:48:03 10° S 18:52:11 35° ESE 18:52:11 35° ESE
H-2A R/B 2.7 18:52:44 32° NE 18:52:44 32° NE 18:56:55 10° N
Starlink A 2.8 18:50:01 10° W 18:53:02 78° NNW 18:53:02 78° NNW
Starlink R 2.8 18:51:44 10° W 18:54:41 76° NW 18:54:41 76° NW
Cosmos 1339 Rocket 4.4 18:49:10 10° N 18:55:16 87° W 19:01:24 10° S
Cosmos 2251 Rocket 3.4 18:50:34 10° NNW 18:55:54 79° ENE 19:01:14 10° SSE
Starlink K 2.9 18:53:24 10° W 18:56:18 73° NW 18:56:18 73° NW
Cosmos 2218 Rocket 3.9 18:50:42 10° S 18:57:00 71° E 19:03:23 10° NNE
Starlink M 3.0 18:55:05 10° W 18:57:54 70° WNW 18:57:54 70° WNW
Cosmos 864 Rocket 4.3 18:54:13 10° S 19:00:16 68° E 19:06:23 10° NNE
DMSP B5D1-3 4.5 18:56:48 20° NNE 19:00:17 58° ESE 19:05:18 10° S
ATLAS CENTAUR R/B 1.1 18:56:48 10° NW 19:00:58 69° NE 19:01:19 64° E
CSL-04 Debris 4.5 18:56:32 10° S 19:01:54 69° WSW 19:07:19 10° NNW
ISS -1.9 18:59:20 10° SSW 19:01:15 22° S 19:01:15 22° S
CZ-4 R/B 2.8 19:03:38 10° SSW 19:07:28 40° W 19:11:24 10° NNW
Cosmos 2082 Rocket 4.4 19:10:31 10° NNW 19:12:05 11° N 19:13:38 10° NNE
COSMO-SKYMED 1 3.5 19:09:17 10° N 19:13:30 49° WNW 19:17:41 10° SW
CZ-2D R/B 4.0 19:11:20 10° S 19:15:05 52° W 19:18:53 10° NNW
Cosmos 2237 Rocket 4.2 19:11:35 10° NW 19:16:19 29° WSW 19:21:02 10° SSW
Cosmos 1953 Rocket 3.8 19:13:47 10° SSW 19:18:15 71° WNW 19:21:40 17° N
Cosmos 1959 Rocket 4.4 19:12:26 10° S 19:18:37 86° W 19:24:47 10° N
Cosmos 1842 Rocket 3.4 19:14:40 10° N 19:18:59 73° NE 19:18:59 73° NE
CZ-2C R/B 3.7 19:23:28 42° NE 19:23:28 42° NE 19:27:54 10° N
Cosmos 1455 3.7 19:19:40 10° NNW 19:23:13 36° W 19:26:42 10° SSW
Cosmos 1356 Rocket 3.4 19:21:35 10° NNW 19:25:37 74° W 19:25:52 71° SW
Cosmos 1000 Rocket 4.4 19:20:13 10° N 19:26:22 64° ENE 19:28:48 37° SE
ADEOS Rocket 3.1 19:23:02 10° NNE 19:29:30 70° ESE 19:36:40 10° S
ERBS 3.8 19:26:37 10° WSW 19:28:37 34° WSW 19:28:37 34° WSW
Meteor 1-27 4.1 19:25:10 10° NNW 19:30:47 90° ENE 19:35:59 12° S
Cosmos 2366 rocket 4.1 19:24:50 10° SSW 19:31:04 75° WNW 19:37:24 10° N
Meteor 2-2 Rocket 4.2 19:26:27 10° N 19:32:31 70° ENE 19:33:56 52° SE
Cosmos 1932 4.4 19:26:08 10° SW 19:32:33 88° NW 19:34:47 45° NE
ATLAS 5 CENTAUR R/B 3.4 19:30:43 10° WNW 19:34:39 25° N 19:35:26 24° N
Meteor 1-11 4.0 19:31:03 10° S 19:36:40 84° E 19:38:45 41° NNE
SL-16 R/B 3.2 19:33:35 10° NW 19:38:59 46° WSW 19:44:20 10° S
Cosmos 407 Rocket 4.2 19:41:56 10° NNW 19:45:41 43° N 19:45:41 43° N
Cosmos 2219 4.2 19:43:07 10° WSW 19:48:27 42° NW 19:51:10 26° N
Cosmos 2082 3.6 19:44:47 10° SSW 19:50:25 81° WNW 19:50:54 74° N
Meteor 2-12 Rocket 4.3 19:44:58 10° S 19:51:01 89° W 19:57:08 10° N
Cosmos 1603 3.7 19:45:50 10° NNW 19:51:03 72° N 19:51:03 72° N
Cosmos 2297 Rocket 3.0 19:54:53 10° WSW 20:00:20 47° NW 20:02:09 35° N
USA 267 3.4 19:59:31 55° NNE 20:00:24 60° N 20:06:48 10° W
Ariane Rocket 4.2 20:06:05 10° SSW 20:10:49 39° W 20:15:35 10° NNW
Cosmos 2227 Rocket 3.2 20:07:33 10° WSW 20:12:54 42° NW 20:14:11 37° NNW
ARGOS 4.0 20:21:36 46° NW 20:21:36 46° NW 20:25:32 10° NNW
Cosmos 1943 4.1 20:20:51 10° NNW 20:24:39 44° NW 20:24:39 44° NW
H-2A R/B 3.5 20:33:20 33° NW 20:33:20 33° NW 20:36:36 10° NNW
ATLAS CENTAUR R/B 4.3 20:36:36 10° WNW 20:37:32 14° W 20:37:32 14° W
ATLAS 5 CENTAUR R/B 4.4 21:02:25 10° WNW 21:07:54 58° SW 21:09:01 55° SSW
